| time (UTC) | temp C | wind direction | speed KPH | gust KPH | rain 1hr cm | rain 24hr cm | rain mn cm | humidity % | barometer mb |
| 20260505061005 | 13 | 178 | 1.6 | 8.0 | 0.00 | 0.00 | 0.00 | 87 | 1011.4 |
| 20260505055004 | 13 | 173 | 1.6 | 9.7 | 0.00 | 0.00 | 0.00 | 86 | 1011.3 |
| 20260505053004 | 13 | 184 | 1.6 | 8.0 | 0.00 | 0.00 | 0.00 | 85 | 1011.3 |
| 20260505052004 | 13 | 190 | 1.6 | 8.0 | 0.00 | 0.00 | 0.00 | 85 | 1011.2 |
| 20260505051004 | 13 | 185 | 1.6 | 6.4 | 0.00 | 0.00 | 0.00 | 85 | 1011.3 |
| 20260505041004 | 15 | 178 | 4.8 | 16.1 | 0.00 | 0.00 | 0.00 | 81 | 1010.1 |
| 20260505040005 | 16 | 176 | 4.8 | 16.1 | 0.00 | 0.00 | 0.00 | 80 | 1010.2 |
| 20260505035006 | 16 | 170 | 6.4 | 14.5 | 0.00 | 0.00 | 0.00 | 79 | 1009.9 |
| 20260505034004 | 16 | 181 | 3.2 | 12.9 | 0.00 | 0.00 | 0.00 | 77 | 1009.7 |
| 20260505033005 | 17 | 194 | 1.6 | 9.7 | 0.00 | 0.00 | 0.00 | 76 | 1009.4 |
| 20260505032004 | 17 | 176 | 3.2 | 11.3 | 0.00 | 0.00 | 0.00 | 75 | 1009.4 |
| 20260505031004 | 18 | 175 | 4.8 | 9.7 | 0.00 | 0.00 | 0.00 | 74 | 1009.3 |
| 20260505025006 | 18 | 178 | 4.8 | 14.5 | 0.00 | 0.00 | 0.00 | 72 | 1009.2 |
| 20260505023005 | 20 | 191 | 3.2 | 9.7 | 0.00 | 0.00 | 0.00 | 69 | 1009.1 |
| 20260505022004 | 20 | 178 | 4.8 | 16.1 | 0.00 | 0.00 | 0.00 | 68 | 1009.2 |
| 20260505021004 | 20 | 186 | 4.8 | 12.9 | 0.00 | 0.00 | 0.00 | 68 | 1009.0 |
| 20260505020005 | 21 | 178 | 4.8 | 12.9 | 0.00 | 0.00 | 0.00 | 65 | 1009.0 |
| 20260505015005 | 21 | 184 | 3.2 | 11.3 | 0.00 | 0.00 | 0.00 | 63 | 1008.8 |
| 20260505014004 | 22 | 179 | 4.8 | 11.3 | 0.00 | 0.00 | 0.00 | 62 | 1008.8 |
| 20260505012004 | 22 | 175 | 6.4 | 12.9 | 0.00 | 0.00 | 0.00 | 60 | 1008.8 |
| 20260505011005 | 23 | 177 | 4.8 | 11.3 | 0.00 | 0.00 | 0.00 | 61 | 1008.9 |
| 20260505010004 | 23 | 177 | 4.8 | 9.7 | 0.00 | 0.00 | 0.00 | 59 | 1009.0 |
| 20260505005005 | 24 | 172 | 6.4 | 12.9 | 0.00 | 0.00 | 0.00 | 59 | 1009.0 |
| 20260505004004 | 24 | 170 | 4.8 | 11.3 | 0.00 | 0.00 | 0.00 | 60 | 1009.0 |
| 20260505003004 | 25 | 183 | 3.2 | 11.3 | 0.00 | 0.00 | 0.00 | 61 | 1008.8 |
| 20260505002005 | 24 | 169 | 6.4 | 17.7 | 0.00 | 0.00 | 0.00 | 61 | 1008.8 |
| 20260505001004 | 24 | 175 | 6.4 | 16.1 | 0.00 | 0.00 | 0.00 | 62 | 1008.9 |
| 20260505000005 | 24 | 173 | 6.4 | 16.1 | 0.00 | 0.00 | 0.00 | 60 | 1009.0 |
| 20260504235004 | 25 | 184 | 3.2 | 11.3 | 0.00 | 0.00 | 0.00 | 58 | 1009.0 |
| 20260504233005 | 25 | 185 | 4.8 | 9.7 | 0.00 | 0.00 | 0.00 | 59 | 1008.8 |
| 20260504231004 | 25 | 167 | 6.4 | 14.5 | 0.00 | 0.00 | 0.00 | 59 | 1008.9 |
| 20260504230004 | 25 | 155 | 4.8 | 11.3 | 0.00 | 0.00 | 0.00 | 60 | 1009.1 |
| 20260504225004 | 25 | 179 | 3.2 | 9.7 | 0.00 | 0.00 | 0.00 | 59 | 1009.3 |
| 20260504222004 | 24 | 166 | 4.8 | 9.7 | 0.00 | 0.00 | 0.00 | 62 | 1009.4 |
| 20260504221004 | 24 | 159 | 6.4 | 12.9 | 0.00 | 0.00 | 0.00 | 63 | 1009.6 |
| 20260504220004 | 24 | 157 | 4.8 | 9.7 | 0.00 | 0.00 | 0.00 | 60 | 1009.6 |
| 20260504215005 | 24 | 170 | 4.8 | 9.7 | 0.00 | 0.00 | 0.00 | 59 | 1009.8 |
| 20260504214004 | 24 | 169 | 4.8 | 8.0 | 0.00 | 0.00 | 0.00 | 58 | 1009.8 |
| 20260504213004 | 23 | 163 | 3.2 | 9.7 | 0.00 | 0.00 | 0.00 | 57 | 1010.0 |
| 20260504212004 | 23 | 165 | 4.8 | 9.7 | 0.00 | 0.00 | 0.00 | 57 | 1010.0 |
| 20260504211004 | 23 | 165 | 4.8 | 11.3 | 0.00 | 0.00 | 0.00 | 61 | 1010.1 |
| 20260504205004 | 23 | 172 | 4.8 | 9.7 | 0.00 | 0.00 | 0.00 | 65 | 1010.3 |
| 20260504204005 | 22 | 177 | 4.8 | 11.3 | 0.00 | 0.00 | 0.00 | 67 | 1010.4 |
| 20260504203004 | 22 | 174 | 3.2 | 12.9 | 0.00 | 0.00 | 0.00 | 67 | 1010.4 |
| 20260504201004 | 22 | 172 | 4.8 | 11.3 | 0.00 | 0.00 | 0.00 | 68 | 1010.2 |
| 20260504200004 | 22 | 184 | 4.8 | 9.7 | 0.00 | 0.00 | 0.00 | 70 | 1010.5 |
| 20260504195004 | 21 | 178 | 4.8 | 12.9 | 0.00 | 0.00 | 0.00 | 68 | 1010.6 |
| 20260504194004 | 21 | 181 | 4.8 | 11.3 | 0.00 | 0.00 | 0.00 | 68 | 1010.5 |
| 20260504192004 | 21 | 170 | 6.4 | 12.9 | 0.00 | 0.00 | 0.00 | 69 | 1010.7 |
| 20260504191005 | 21 | 182 | 4.8 | 9.7 | 0.00 | 0.00 | 0.00 | 70 | 1010.6 |
| 20260504190005 | 21 | 177 | 4.8 | 11.3 | 0.00 | 0.00 | 0.00 | 70 | 1010.7 |
| 20260504185004 | 21 | 169 | 6.4 | 14.5 | 0.00 | 0.00 | 0.00 | 70 | 1010.8 |
| 20260504184004 | 20 | 169 | 6.4 | 12.9 | 0.00 | 0.00 | 0.00 | 70 | 1010.8 |
| 20260504183004 | 20 | 173 | 4.8 | 9.7 | 0.00 | 0.00 | 0.00 | 73 | 1010.9 |
| 20260504181004 | 19 | 174 | 6.4 | 12.9 | 0.00 | 0.00 | 0.00 | 74 | 1010.9 |
| 20260504180004 | 19 | 171 | 4.8 | 11.3 | 0.00 | 0.00 | 0.00 | 74 | 1011.0 |
| 20260504175004 | 19 | 173 | 4.8 | 12.9 | 0.00 | 0.00 | 0.00 | 75 | 1010.9 |
| 20260504174004 | 18 | 183 | 4.8 | 8.0 | 0.00 | 0.00 | 0.00 | 74 | 1010.8 |
| 20260504173004 | 18 | 175 | 4.8 | 8.0 | 0.00 | 0.00 | 0.00 | 74 | 1010.8 |
| 20260504171004 | 18 | 183 | 3.2 | 8.0 | 0.00 | 0.00 | 0.00 | 73 | 1010.8 |